Year,Month,Day,Hour,Minute,Value (Times are PST for temperature in C)
2021,04,20,00,00,9.60
2021,04,20,00,01,9.50
2021,04,20,00,02,9.50
2021,04,20,00,03,9.50
2021,04,20,00,04,9.50
2021,04,20,00,05,9.50
2021,04,20,00,06,9.50
2021,04,20,00,07,9.50
2021,04,20,00,08,9.50
2021,04,20,00,09,9.40
2021,04,20,00,10,9.40
2021,04,20,00,11,9.40
2021,04,20,00,12,9.40
2021,04,20,00,13,9.40
2021,04,20,00,14,9.40
2021,04,20,00,15,9.40
2021,04,20,00,16,9.40
2021,04,20,00,17,9.40
2021,04,20,00,18,9.40
2021,04,20,00,19,9.40
2021,04,20,00,20,9.40
2021,04,20,00,21,9.30
2021,04,20,00,22,9.30
2021,04,20,00,23,9.30
2021,04,20,00,24,9.30
2021,04,20,00,25,9.30
2021,04,20,00,26,9.30
2021,04,20,00,27,9.30
2021,04,20,00,28,9.30
2021,04,20,00,29,9.30
2021,04,20,00,30,9.30
2021,04,20,00,31,9.30
2021,04,20,00,32,9.30
2021,04,20,00,33,9.30
2021,04,20,00,34,9.30
2021,04,20,00,35,9.30
2021,04,20,00,36,9.40
2021,04,20,00,37,9.40
2021,04,20,00,38,9.50
2021,04,20,00,39,9.50
2021,04,20,00,40,9.60
2021,04,20,00,41,9.60
2021,04,20,00,42,9.60
2021,04,20,00,43,9.60
2021,04,20,00,44,9.70
2021,04,20,00,45,9.70
2021,04,20,00,46,9.80
2021,04,20,00,47,9.80
2021,04,20,00,48,9.80
2021,04,20,00,49,9.80
2021,04,20,00,50,9.80
2021,04,20,00,51,9.90
2021,04,20,00,52,9.90
2021,04,20,00,53,9.90
2021,04,20,00,54,10.00
2021,04,20,00,55,10.00
2021,04,20,00,56,10.10
2021,04,20,00,57,10.10
2021,04,20,00,58,10.10
2021,04,20,00,59,10.10
2021,04,20,01,00,10.20
2021,04,20,01,01,10.20
2021,04,20,01,02,10.30
2021,04,20,01,03,10.40
2021,04,20,01,04,10.50
2021,04,20,01,05,10.60
2021,04,20,01,06,10.60
2021,04,20,01,07,10.60
2021,04,20,01,08,10.70
2021,04,20,01,09,10.70
2021,04,20,01,10,10.70
2021,04,20,01,11,10.80
2021,04,20,01,12,10.70
2021,04,20,01,13,10.70
2021,04,20,01,14,10.80
2021,04,20,01,15,10.80
2021,04,20,01,16,10.80
2021,04,20,01,17,10.90
2021,04,20,01,18,10.90
2021,04,20,01,19,10.90
2021,04,20,01,20,10.90
2021,04,20,01,21,10.90
2021,04,20,01,22,10.90
2021,04,20,01,23,10.90
2021,04,20,01,24,10.90
2021,04,20,01,25,10.90
2021,04,20,01,26,10.90
2021,04,20,01,27,11.00
2021,04,20,01,28,11.00
2021,04,20,01,29,11.00
2021,04,20,01,30,11.00
2021,04,20,01,31,11.00
2021,04,20,01,32,11.00
2021,04,20,01,33,11.00
2021,04,20,01,34,10.90
2021,04,20,01,35,10.90
2021,04,20,01,36,10.80
2021,04,20,01,37,10.80
2021,04,20,01,38,10.80
2021,04,20,01,39,10.80
2021,04,20,01,40,10.70
2021,04,20,01,41,10.70
2021,04,20,01,42,10.70
2021,04,20,01,43,10.70
2021,04,20,01,44,10.60
2021,04,20,01,45,10.60
2021,04,20,01,46,10.60
2021,04,20,01,47,10.50
2021,04,20,01,48,10.50
2021,04,20,01,49,10.60
2021,04,20,01,50,10.60
2021,04,20,01,51,10.50
2021,04,20,01,52,10.50
2021,04,20,01,53,10.50
2021,04,20,01,54,10.50
2021,04,20,01,55,10.40
2021,04,20,01,56,10.40
2021,04,20,01,57,10.30
2021,04,20,01,58,10.30
2021,04,20,01,59,10.20
2021,04,20,02,00,10.20
2021,04,20,02,01,10.10
2021,04,20,02,02,10.10
2021,04,20,02,03,10.00
2021,04,20,02,04,10.00
2021,04,20,02,05,10.00
2021,04,20,02,06,9.90
2021,04,20,02,07,9.90
2021,04,20,02,08,9.90
2021,04,20,02,09,9.90
2021,04,20,02,10,9.80
2021,04,20,02,11,9.90
2021,04,20,02,12,9.80
2021,04,20,02,13,9.80
2021,04,20,02,14,9.80
2021,04,20,02,15,9.80
2021,04,20,02,16,9.80
2021,04,20,02,17,9.80
2021,04,20,02,18,9.70
2021,04,20,02,19,9.70
2021,04,20,02,20,9.70
2021,04,20,02,21,9.60
2021,04,20,02,22,9.60
2021,04,20,02,23,9.60
2021,04,20,02,24,9.60
2021,04,20,02,25,9.60
2021,04,20,02,26,9.50
2021,04,20,02,27,9.50
2021,04,20,02,28,9.50
2021,04,20,02,29,9.40
2021,04,20,02,30,9.40
2021,04,20,02,31,9.30
2021,04,20,02,32,9.30
2021,04,20,02,33,9.20
2021,04,20,02,34,9.20
2021,04,20,02,35,9.10
2021,04,20,02,36,9.10
2021,04,20,02,37,9.10
2021,04,20,02,38,9.00
2021,04,20,02,39,9.00
2021,04,20,02,40,9.00
2021,04,20,02,41,9.00
2021,04,20,02,42,9.00
2021,04,20,02,43,8.90
2021,04,20,02,44,8.90
2021,04,20,02,45,8.90
2021,04,20,02,46,8.90
2021,04,20,02,47,8.90
2021,04,20,02,48,8.90
2021,04,20,02,49,8.90
2021,04,20,02,50,8.90
2021,04,20,02,51,8.90
2021,04,20,02,52,8.90
2021,04,20,02,53,8.90
2021,04,20,02,54,8.90
2021,04,20,02,55,8.90
2021,04,20,02,56,8.80
2021,04,20,02,57,8.80
2021,04,20,02,58,8.80
2021,04,20,02,59,8.80
2021,04,20,03,00,8.70
2021,04,20,03,01,8.70
2021,04,20,03,02,8.70
2021,04,20,03,03,8.60
2021,04,20,03,04,8.60
2021,04,20,03,05,8.60
2021,04,20,03,06,8.60
2021,04,20,03,07,8.60
2021,04,20,03,08,8.60
2021,04,20,03,09,8.60
2021,04,20,03,10,8.60
2021,04,20,03,11,8.60
2021,04,20,03,12,8.60
2021,04,20,03,13,8.50
2021,04,20,03,14,8.50
2021,04,20,03,15,8.50
2021,04,20,03,16,8.40
2021,04,20,03,17,8.40
2021,04,20,03,18,8.40
2021,04,20,03,19,8.40
2021,04,20,03,20,8.30
2021,04,20,03,21,8.30
2021,04,20,03,22,8.30
2021,04,20,03,23,8.30
2021,04,20,03,24,8.30
2021,04,20,03,25,8.30
2021,04,20,03,26,8.30
2021,04,20,03,27,8.30
2021,04,20,03,28,8.30
2021,04,20,03,29,8.30
2021,04,20,03,30,8.30
2021,04,20,03,31,8.30
2021,04,20,03,32,8.20
2021,04,20,03,33,8.20
2021,04,20,03,34,8.20
2021,04,20,03,35,8.20
2021,04,20,03,36,8.20
2021,04,20,03,37,8.20
2021,04,20,03,38,8.20
2021,04,20,03,39,8.10
2021,04,20,03,40,8.20
2021,04,20,03,41,8.20
2021,04,20,03,42,8.20
2021,04,20,03,43,8.20
2021,04,20,03,44,8.20
2021,04,20,03,45,8.20
2021,04,20,03,46,8.20
2021,04,20,03,47,8.30
2021,04,20,03,48,8.30
2021,04,20,03,49,8.30
2021,04,20,03,50,8.20
2021,04,20,03,51,8.20
2021,04,20,03,52,8.20
2021,04,20,03,53,8.20
2021,04,20,03,54,8.20
2021,04,20,03,55,8.20
2021,04,20,03,56,8.20
2021,04,20,03,57,8.10
2021,04,20,03,58,8.10
2021,04,20,03,59,8.10
2021,04,20,04,00,8.10
2021,04,20,04,01,8.10
2021,04,20,04,02,8.10
2021,04,20,04,03,8.10
2021,04,20,04,04,8.10
2021,04,20,04,05,8.20
2021,04,20,04,06,8.20
2021,04,20,04,07,8.20
2021,04,20,04,08,8.20
2021,04,20,04,09,8.20
2021,04,20,04,10,8.20
2021,04,20,04,11,8.20
2021,04,20,04,12,8.20
2021,04,20,04,13,8.10
2021,04,20,04,14,8.10
2021,04,20,04,15,8.10
2021,04,20,04,16,8.10
2021,04,20,04,17,8.10
2021,04,20,04,18,8.10
2021,04,20,04,19,8.10
2021,04,20,04,20,8.10
2021,04,20,04,21,8.10
2021,04,20,04,22,8.10
2021,04,20,04,23,8.20
2021,04,20,04,24,8.20
2021,04,20,04,25,8.20
2021,04,20,04,26,8.20
2021,04,20,04,27,8.20
2021,04,20,04,28,8.20
2021,04,20,04,29,8.20
2021,04,20,04,30,8.20
2021,04,20,04,31,8.20
2021,04,20,04,32,8.20
2021,04,20,04,33,8.20
2021,04,20,04,34,8.20
2021,04,20,04,35,8.20
2021,04,20,04,36,8.20
2021,04,20,04,37,8.20
2021,04,20,04,38,8.30
2021,04,20,04,39,8.30
2021,04,20,04,40,8.30
2021,04,20,04,41,8.40
2021,04,20,04,42,8.40
2021,04,20,04,43,8.50
2021,04,20,04,44,8.60
2021,04,20,04,45,8.70
2021,04,20,04,46,8.70
2021,04,20,04,47,8.80
2021,04,20,04,48,8.80
2021,04,20,04,49,8.80
2021,04,20,04,50,8.80
2021,04,20,04,51,8.90
2021,04,20,04,52,8.90
2021,04,20,04,53,8.90
2021,04,20,04,54,8.90
2021,04,20,04,55,8.90
2021,04,20,04,56,9.00
2021,04,20,04,57,9.10
2021,04,20,04,58,9.10
2021,04,20,04,59,9.10
2021,04,20,05,00,9.20
2021,04,20,05,01,9.20
2021,04,20,05,02,9.20
2021,04,20,05,03,9.20
2021,04,20,05,04,9.20
2021,04,20,05,05,9.20
2021,04,20,05,06,9.20
2021,04,20,05,07,9.20
2021,04,20,05,08,9.20
2021,04,20,05,09,9.20
2021,04,20,05,10,9.20
2021,04,20,05,11,9.10
2021,04,20,05,12,9.20
2021,04,20,05,13,9.20
2021,04,20,05,14,9.20
2021,04,20,05,15,9.20
2021,04,20,05,16,9.20
2021,04,20,05,17,9.20
2021,04,20,05,18,9.20
2021,04,20,05,19,9.20
2021,04,20,05,20,9.20
2021,04,20,05,21,9.20
2021,04,20,05,22,9.10
2021,04,20,05,23,9.10
2021,04,20,05,24,9.10
2021,04,20,05,25,9.10
2021,04,20,05,26,9.10
2021,04,20,05,27,9.10
2021,04,20,05,28,9.10
2021,04,20,05,29,9.10
2021,04,20,05,30,9.00
2021,04,20,05,31,9.00
2021,04,20,05,32,9.00
2021,04,20,05,33,8.90
2021,04,20,05,34,8.90
2021,04,20,05,35,8.90
2021,04,20,05,36,8.90
2021,04,20,05,37,8.90
2021,04,20,05,38,8.80
2021,04,20,05,39,8.80
2021,04,20,05,40,8.80
2021,04,20,05,41,8.80
2021,04,20,05,42,8.80
2021,04,20,05,43,8.80
2021,04,20,05,44,8.80
2021,04,20,05,45,8.80
2021,04,20,05,46,8.70
2021,04,20,05,47,8.70
2021,04,20,05,48,8.70
2021,04,20,05,49,8.70
2021,04,20,05,50,8.70
2021,04,20,05,51,8.70
2021,04,20,05,52,8.70
2021,04,20,05,53,8.70
2021,04,20,05,54,8.60
2021,04,20,05,55,8.60
2021,04,20,05,56,8.60
2021,04,20,05,57,8.60
2021,04,20,05,58,8.60
2021,04,20,05,59,8.50
2021,04,20,06,00,8.50
2021,04,20,06,01,8.50
2021,04,20,06,02,8.50
2021,04,20,06,03,8.50
2021,04,20,06,04,8.50
2021,04,20,06,05,8.40
2021,04,20,06,06,8.50
2021,04,20,06,07,8.40
2021,04,20,06,08,8.40
2021,04,20,06,09,8.40
2021,04,20,06,10,8.40
2021,04,20,06,11,8.40
2021,04,20,06,12,8.50
2021,04,20,06,13,8.50
2021,04,20,06,14,8.50
2021,04,20,06,15,8.50
2021,04,20,06,16,8.50
2021,04,20,06,17,8.50
2021,04,20,06,18,8.50
2021,04,20,06,19,8.50
2021,04,20,06,20,8.50
2021,04,20,06,21,8.50
2021,04,20,06,22,8.50
2021,04,20,06,23,8.50
2021,04,20,06,24,8.50
2021,04,20,06,25,8.50
2021,04,20,06,26,8.50
2021,04,20,06,27,8.50
2021,04,20,06,28,8.50
2021,04,20,06,29,8.50
2021,04,20,06,30,8.50
2021,04,20,06,31,8.50
2021,04,20,06,32,8.50
2021,04,20,06,33,8.40
2021,04,20,06,34,8.40
2021,04,20,06,35,8.40
2021,04,20,06,36,8.40
2021,04,20,06,37,8.40
2021,04,20,06,38,8.40
2021,04,20,06,39,8.40
2021,04,20,06,40,8.40
2021,04,20,06,41,8.40
2021,04,20,06,42,8.40
2021,04,20,06,43,8.40
2021,04,20,06,44,8.40
2021,04,20,06,45,8.40
2021,04,20,06,46,8.40
2021,04,20,06,47,8.30
2021,04,20,06,48,8.30
2021,04,20,06,49,8.30
2021,04,20,06,50,8.30
2021,04,20,06,51,8.30
2021,04,20,06,52,8.30
2021,04,20,06,53,8.30
2021,04,20,06,54,8.30
2021,04,20,06,55,8.30
2021,04,20,06,56,8.30
2021,04,20,06,57,8.30
2021,04,20,06,58,8.30
2021,04,20,06,59,8.20
2021,04,20,07,00,8.20
2021,04,20,07,01,8.20
2021,04,20,07,02,8.20
2021,04,20,07,03,8.20
2021,04,20,07,04,8.20
2021,04,20,07,05,8.20
2021,04,20,07,06,8.20
2021,04,20,07,07,8.30
2021,04,20,07,08,8.30
2021,04,20,07,09,8.30
2021,04,20,07,10,8.30
2021,04,20,07,11,8.40
2021,04,20,07,12,8.50
2021,04,20,07,13,8.50
2021,04,20,07,14,8.60
2021,04,20,07,15,8.60
2021,04,20,07,16,8.70
2021,04,20,07,17,8.70
2021,04,20,07,18,8.80
2021,04,20,07,19,8.80
2021,04,20,07,20,8.80
2021,04,20,07,21,8.90
2021,04,20,07,22,8.90
2021,04,20,07,23,9.00
2021,04,20,07,24,9.00
2021,04,20,07,25,9.10
2021,04,20,07,26,9.10
2021,04,20,07,27,9.20
2021,04,20,07,28,9.20
2021,04,20,07,29,9.30
2021,04,20,07,30,9.30
2021,04,20,07,31,9.40
2021,04,20,07,32,9.50
2021,04,20,07,33,9.50
2021,04,20,07,34,9.60
2021,04,20,07,35,9.70
2021,04,20,07,36,9.80
2021,04,20,07,37,9.90
2021,04,20,07,38,10.00
2021,04,20,07,39,10.10
2021,04,20,07,40,10.10
2021,04,20,07,41,10.10
2021,04,20,07,42,10.20
2021,04,20,07,43,10.30
2021,04,20,07,44,10.40
2021,04,20,07,45,10.40
2021,04,20,07,46,10.50
2021,04,20,07,47,10.60
2021,04,20,07,48,10.70
2021,04,20,07,49,10.80
2021,04,20,07,50,10.80
2021,04,20,07,51,10.90
2021,04,20,07,52,11.00
2021,04,20,07,53,11.10
2021,04,20,07,54,11.10
2021,04,20,07,55,11.20
2021,04,20,07,56,11.30
2021,04,20,07,57,11.30
2021,04,20,07,58,11.40
2021,04,20,07,59,11.40
2021,04,20,08,00,11.50
2021,04,20,08,01,11.60
2021,04,20,08,02,11.70
2021,04,20,08,03,11.80
2021,04,20,08,04,11.90
2021,04,20,08,05,11.90
2021,04,20,08,06,12.00
2021,04,20,08,07,12.00
2021,04,20,08,08,12.10
2021,04,20,08,09,12.10
2021,04,20,08,10,12.10
2021,04,20,08,11,12.20
2021,04,20,08,12,12.20
2021,04,20,08,13,12.20
2021,04,20,08,14,12.20
2021,04,20,08,15,12.30
2021,04,20,08,16,12.20
2021,04,20,08,17,12.20
2021,04,20,08,18,12.20
2021,04,20,08,19,12.20
2021,04,20,08,20,12.30
2021,04,20,08,21,12.30
2021,04,20,08,22,12.30
2021,04,20,08,23,12.40
2021,04,20,08,24,12.50
2021,04,20,08,25,12.60
2021,04,20,08,26,12.60
2021,04,20,08,27,12.70
2021,04,20,08,28,12.70
2021,04,20,08,29,12.70
2021,04,20,08,30,12.80
2021,04,20,08,31,12.80
2021,04,20,08,32,12.80
2021,04,20,08,33,12.80
2021,04,20,08,34,12.80
2021,04,20,08,35,12.80
2021,04,20,08,36,12.80
2021,04,20,08,37,12.80
2021,04,20,08,38,12.90
2021,04,20,08,39,12.90
2021,04,20,08,40,12.90
2021,04,20,08,41,12.90
2021,04,20,08,42,13.00
2021,04,20,08,43,13.10
2021,04,20,08,44,13.10
2021,04,20,08,45,13.20
2021,04,20,08,46,13.30
2021,04,20,08,47,13.30
2021,04,20,08,48,13.20
2021,04,20,08,49,13.10
2021,04,20,08,50,13.10
2021,04,20,08,51,13.00
2021,04,20,08,52,13.00
2021,04,20,08,53,13.00
2021,04,20,08,54,13.00
2021,04,20,08,55,12.90
2021,04,20,08,56,13.00
2021,04,20,08,57,13.00
2021,04,20,08,58,13.10
2021,04,20,08,59,13.20
2021,04,20,09,00,13.30
2021,04,20,09,01,13.30
2021,04,20,09,02,13.30
2021,04,20,09,03,13.30
2021,04,20,09,04,13.30
2021,04,20,09,05,13.30
2021,04,20,09,06,13.30
2021,04,20,09,07,13.30
2021,04,20,09,08,13.20
2021,04,20,09,09,13.30
2021,04,20,09,10,13.30
2021,04,20,09,11,13.40
2021,04,20,09,12,13.40
2021,04,20,09,13,13.40
2021,04,20,09,14,13.50
2021,04,20,09,15,13.50
2021,04,20,09,16,13.60
2021,04,20,09,17,13.70
2021,04,20,09,18,13.70
2021,04,20,09,19,13.80
2021,04,20,09,20,13.80
2021,04,20,09,21,13.90
2021,04,20,09,22,14.00
2021,04,20,09,23,14.00
2021,04,20,09,24,14.00
2021,04,20,09,25,14.00
2021,04,20,09,26,14.00
2021,04,20,09,27,14.00
2021,04,20,09,28,14.00
2021,04,20,09,29,14.00
2021,04,20,09,30,14.10
2021,04,20,09,31,14.10
2021,04,20,09,32,14.10
2021,04,20,09,33,14.00
2021,04,20,09,34,13.90
2021,04,20,09,35,13.90
2021,04,20,09,36,13.90
2021,04,20,09,37,13.90
2021,04,20,09,38,14.00
2021,04,20,09,39,14.00
2021,04,20,09,40,14.00
2021,04,20,09,41,14.00
2021,04,20,09,42,14.10
2021,04,20,09,43,14.10
2021,04,20,09,44,14.10
2021,04,20,09,45,14.10
2021,04,20,09,46,14.10
2021,04,20,09,47,14.10
2021,04,20,09,48,14.00
2021,04,20,09,49,14.00
2021,04,20,09,50,14.00
2021,04,20,09,51,14.00
2021,04,20,09,52,14.00
2021,04,20,09,53,14.00
2021,04,20,09,54,14.10
2021,04,20,09,55,14.10
2021,04,20,09,56,14.00
2021,04,20,09,57,14.00
2021,04,20,09,58,14.00
2021,04,20,09,59,14.00
2021,04,20,10,00,14.00
2021,04,20,10,01,14.10
2021,04,20,10,02,14.00
2021,04,20,10,03,14.10
2021,04,20,10,04,14.20
2021,04,20,10,05,14.20
2021,04,20,10,06,14.10
2021,04,20,10,07,14.20
2021,04,20,10,08,14.30
2021,04,20,10,09,14.30
2021,04,20,10,10,14.30
2021,04,20,10,11,14.40
2021,04,20,10,12,14.40
2021,04,20,10,13,14.40
2021,04,20,10,14,14.40
2021,04,20,10,15,14.40
2021,04,20,10,16,14.40
2021,04,20,10,17,14.40
2021,04,20,10,18,14.40
2021,04,20,10,19,14.40
2021,04,20,10,20,14.40
2021,04,20,10,21,14.30
2021,04,20,10,22,14.30
2021,04,20,10,23,14.20
2021,04,20,10,24,14.20
2021,04,20,10,25,14.20
2021,04,20,10,26,14.20
2021,04,20,10,27,14.30
2021,04,20,10,28,14.30
2021,04,20,10,29,14.30
2021,04,20,10,30,14.40
2021,04,20,10,31,14.50
2021,04,20,10,32,14.60
2021,04,20,10,33,14.60
2021,04,20,10,34,14.60
2021,04,20,10,35,14.60
2021,04,20,10,36,14.70
2021,04,20,10,37,14.80
2021,04,20,10,38,14.80
2021,04,20,10,39,14.80
2021,04,20,10,40,14.70
2021,04,20,10,41,14.60
2021,04,20,10,42,14.50
2021,04,20,10,43,14.50
2021,04,20,10,44,14.50
2021,04,20,10,45,14.60
2021,04,20,10,46,14.60
2021,04,20,10,47,14.70
2021,04,20,10,48,14.80
2021,04,20,10,49,14.90
2021,04,20,10,50,15.00
2021,04,20,10,51,15.10
2021,04,20,10,52,15.20
2021,04,20,10,53,15.30
2021,04,20,10,54,15.30
2021,04,20,10,55,15.40
2021,04,20,10,56,15.50
2021,04,20,10,57,15.60
2021,04,20,10,58,15.70
2021,04,20,10,59,15.70
2021,04,20,11,00,15.60
2021,04,20,11,01,15.50
2021,04,20,11,02,15.30
2021,04,20,11,03,15.20
2021,04,20,11,04,15.00
2021,04,20,11,05,15.00
2021,04,20,11,06,15.00
2021,04,20,11,07,15.00
2021,04,20,11,08,15.10
2021,04,20,11,09,15.20
2021,04,20,11,10,15.30
2021,04,20,11,11,15.30
2021,04,20,11,12,15.20
2021,04,20,11,13,15.10
2021,04,20,11,14,15.10
2021,04,20,11,15,15.00
2021,04,20,11,16,15.00
2021,04,20,11,17,15.00
2021,04,20,11,18,14.90
2021,04,20,11,19,14.90
2021,04,20,11,20,14.80
2021,04,20,11,21,14.70
2021,04,20,11,22,14.70
2021,04,20,11,23,14.60
2021,04,20,11,24,14.60
2021,04,20,11,25,14.60
2021,04,20,11,26,14.70
2021,04,20,11,27,14.70
2021,04,20,11,28,14.70
2021,04,20,11,29,14.70
2021,04,20,11,30,14.70
2021,04,20,11,31,14.80
2021,04,20,11,32,14.70
2021,04,20,11,33,14.80
2021,04,20,11,34,14.80
2021,04,20,11,35,14.70
2021,04,20,11,36,14.70
2021,04,20,11,37,14.60
2021,04,20,11,38,14.50
2021,04,20,11,39,14.40
2021,04,20,11,40,14.40
2021,04,20,11,41,14.40
2021,04,20,11,42,14.40
2021,04,20,11,43,14.40
2021,04,20,11,44,14.50
2021,04,20,11,45,14.50
2021,04,20,11,46,14.50
2021,04,20,11,47,14.50
2021,04,20,11,48,14.50
2021,04,20,11,49,14.60
2021,04,20,11,50,14.70
2021,04,20,11,51,14.70
2021,04,20,11,52,14.80
2021,04,20,11,53,14.80
2021,04,20,11,54,14.80
2021,04,20,11,55,14.80
2021,04,20,11,56,14.70
2021,04,20,11,57,14.80
2021,04,20,11,58,14.80
2021,04,20,11,59,14.80
2021,04,20,12,00,14.80
2021,04,20,12,01,14.90
2021,04,20,12,02,14.90
2021,04,20,12,03,15.00
2021,04,20,12,04,15.10
2021,04,20,12,05,15.20
2021,04,20,12,06,15.20
2021,04,20,12,07,15.30
2021,04,20,12,08,15.30
2021,04,20,12,09,15.30
2021,04,20,12,10,15.30
2021,04,20,12,11,15.30
2021,04,20,12,12,15.30
2021,04,20,12,13,15.40
2021,04,20,12,14,15.40
2021,04,20,12,15,15.50
2021,04,20,12,16,15.50
2021,04,20,12,17,15.50
2021,04,20,12,18,15.60
2021,04,20,12,19,15.70
2021,04,20,12,20,15.80
2021,04,20,12,21,15.90
2021,04,20,12,22,15.90
2021,04,20,12,23,15.90
2021,04,20,12,24,15.90
2021,04,20,12,25,15.90
2021,04,20,12,26,15.80
2021,04,20,12,27,15.80
2021,04,20,12,28,15.70
2021,04,20,12,29,15.60
2021,04,20,12,30,15.50
2021,04,20,12,31,15.40
2021,04,20,12,32,15.40
2021,04,20,12,33,15.50
2021,04,20,12,34,15.50
2021,04,20,12,35,15.50
2021,04,20,12,36,15.50
2021,04,20,12,37,15.60
2021,04,20,12,38,15.50
2021,04,20,12,39,15.40
2021,04,20,12,40,15.40
2021,04,20,12,41,15.40
2021,04,20,12,42,15.40
2021,04,20,12,43,15.30
2021,04,20,12,44,15.30
2021,04,20,12,45,15.30
2021,04,20,12,46,15.30
2021,04,20,12,47,15.30
2021,04,20,12,48,15.40
2021,04,20,12,49,15.40
2021,04,20,12,50,15.30
2021,04,20,12,51,15.20
2021,04,20,12,52,15.10
2021,04,20,12,53,15.10
2021,04,20,12,54,15.00
2021,04,20,12,55,15.10
2021,04,20,12,56,15.10
2021,04,20,12,57,15.30
2021,04,20,12,58,15.50
2021,04,20,12,59,15.70
2021,04,20,13,00,15.80
2021,04,20,13,01,15.80
2021,04,20,13,02,15.80
2021,04,20,13,03,15.80
2021,04,20,13,04,15.80
2021,04,20,13,05,15.70
2021,04,20,13,06,15.60
2021,04,20,13,07,15.60
2021,04,20,13,08,15.60
2021,04,20,13,09,15.50
2021,04,20,13,10,15.40
2021,04,20,13,11,15.40
2021,04,20,13,12,15.40
2021,04,20,13,13,15.50
2021,04,20,13,14,15.60
2021,04,20,13,15,15.70
2021,04,20,13,16,15.70
2021,04,20,13,17,15.70
2021,04,20,13,18,15.70
2021,04,20,13,19,15.60
2021,04,20,13,20,15.60
2021,04,20,13,21,15.60
2021,04,20,13,22,15.70
2021,04,20,13,23,15.70
2021,04,20,13,24,15.80
2021,04,20,13,25,15.80
2021,04,20,13,26,15.90
2021,04,20,13,27,15.90
2021,04,20,13,28,15.90
2021,04,20,13,29,15.90
2021,04,20,13,30,15.90
2021,04,20,13,31,16.00
2021,04,20,13,32,16.00
2021,04,20,13,33,16.00
2021,04,20,13,34,16.00
2021,04,20,13,35,16.10
2021,04,20,13,36,16.10
2021,04,20,13,37,16.20
2021,04,20,13,38,16.20
2021,04,20,13,39,16.30
2021,04,20,13,40,16.40
2021,04,20,13,41,16.40
2021,04,20,13,42,16.50
2021,04,20,13,43,16.60
2021,04,20,13,44,16.60
2021,04,20,13,45,16.70
2021,04,20,13,46,16.80
2021,04,20,13,47,16.90
2021,04,20,13,48,17.00
2021,04,20,13,49,17.00
2021,04,20,13,50,17.00
2021,04,20,13,51,17.00
2021,04,20,13,52,17.00
2021,04,20,13,53,16.90
2021,04,20,13,54,16.90
2021,04,20,13,55,17.00
2021,04,20,13,56,17.00
2021,04,20,13,57,17.10
2021,04,20,13,58,17.10
2021,04,20,13,59,17.20
2021,04,20,14,00,17.20
2021,04,20,14,01,17.30
2021,04,20,14,02,17.20
2021,04,20,14,03,17.20
2021,04,20,14,04,17.30
2021,04,20,14,05,17.40
2021,04,20,14,06,17.50
2021,04,20,14,07,17.60
2021,04,20,14,08,17.60
2021,04,20,14,09,17.60
2021,04,20,14,10,17.70
2021,04,20,14,11,17.70
2021,04,20,14,12,17.60
2021,04,20,14,13,17.60
2021,04,20,14,14,17.70
2021,04,20,14,15,17.70
2021,04,20,14,16,17.80
2021,04,20,14,17,17.80
2021,04,20,14,18,17.90
2021,04,20,14,19,17.90
2021,04,20,14,20,18.00
2021,04,20,14,21,17.90
2021,04,20,14,22,17.90
2021,04,20,14,23,17.90
2021,04,20,14,24,18.00
2021,04,20,14,25,18.00
2021,04,20,14,26,17.90
2021,04,20,14,27,17.90
2021,04,20,14,28,17.90
2021,04,20,14,29,18.00
2021,04,20,14,30,18.10
2021,04,20,14,31,18.10
2021,04,20,14,32,18.10
2021,04,20,14,33,18.00
2021,04,20,14,34,18.00
2021,04,20,14,35,17.90
2021,04,20,14,36,17.80
2021,04,20,14,37,17.80
2021,04,20,14,38,17.80
2021,04,20,14,39,17.70
2021,04,20,14,40,17.60
2021,04,20,14,41,17.50
2021,04,20,14,42,17.40
2021,04,20,14,43,17.40
2021,04,20,14,44,17.40
2021,04,20,14,45,17.40
2021,04,20,14,46,17.50
2021,04,20,14,47,17.60
2021,04,20,14,48,17.70
2021,04,20,14,49,17.90
2021,04,20,14,50,18.00
2021,04,20,14,51,18.10
2021,04,20,14,52,18.10
2021,04,20,14,53,18.10
2021,04,20,14,54,18.10
2021,04,20,14,55,18.20
2021,04,20,14,56,18.20
2021,04,20,14,57,18.20
2021,04,20,14,58,18.30
2021,04,20,14,59,18.30
2021,04,20,15,00,18.30
2021,04,20,15,01,18.40
2021,04,20,15,02,18.40
2021,04,20,15,03,18.40
2021,04,20,15,04,18.40
2021,04,20,15,05,18.50
2021,04,20,15,06,18.50
2021,04,20,15,07,18.60
2021,04,20,15,08,18.70
2021,04,20,15,09,18.70
2021,04,20,15,10,18.70
2021,04,20,15,11,18.70
2021,04,20,15,12,18.70
2021,04,20,15,13,18.70
2021,04,20,15,14,18.70
2021,04,20,15,15,18.70
2021,04,20,15,16,18.80
2021,04,20,15,17,18.70
2021,04,20,15,18,18.70
2021,04,20,15,19,18.70
2021,04,20,15,20,18.70
2021,04,20,15,21,18.70
2021,04,20,15,22,18.60
2021,04,20,15,23,18.70
2021,04,20,15,24,18.70
2021,04,20,15,25,18.60
2021,04,20,15,26,18.60
2021,04,20,15,27,18.60
2021,04,20,15,28,18.60
2021,04,20,15,29,18.50
2021,04,20,15,30,18.50
2021,04,20,15,31,18.40
2021,04,20,15,32,18.40
2021,04,20,15,33,18.40
2021,04,20,15,34,18.40
2021,04,20,15,35,18.40
2021,04,20,15,36,18.40
2021,04,20,15,37,18.50
2021,04,20,15,38,18.50
2021,04,20,15,39,18.60
2021,04,20,15,40,18.80
2021,04,20,15,41,18.90
2021,04,20,15,42,19.00
2021,04,20,15,43,19.00
2021,04,20,15,44,19.00
2021,04,20,15,45,19.00
2021,04,20,15,46,19.00
2021,04,20,15,47,19.00
2021,04,20,15,48,19.10
2021,04,20,15,49,19.10
2021,04,20,15,50,19.20
2021,04,20,15,51,19.30
2021,04,20,15,52,19.40
2021,04,20,15,53,19.40
2021,04,20,15,54,19.40
2021,04,20,15,55,19.30
2021,04,20,15,56,19.30
2021,04,20,15,57,19.30
2021,04,20,15,58,19.40
2021,04,20,15,59,19.50
2021,04,20,16,00,19.60
2021,04,20,16,01,19.60
2021,04,20,16,02,19.60
2021,04,20,16,03,19.60
2021,04,20,16,04,19.60
2021,04,20,16,05,19.50
2021,04,20,16,06,19.50
2021,04,20,16,07,19.50
2021,04,20,16,08,19.50
2021,04,20,16,09,19.50
2021,04,20,16,10,19.50
2021,04,20,16,11,19.60
2021,04,20,16,12,19.60
2021,04,20,16,13,19.60
2021,04,20,16,14,19.60
2021,04,20,16,15,19.70
2021,04,20,16,16,19.70
2021,04,20,16,17,19.70
2021,04,20,16,18,19.70
2021,04,20,16,19,19.70
2021,04,20,16,20,19.70
2021,04,20,16,21,19.70
2021,04,20,16,22,19.70
2021,04,20,16,23,19.70
2021,04,20,16,24,19.70
2021,04,20,16,25,19.70
2021,04,20,16,26,19.80
2021,04,20,16,27,19.90
2021,04,20,16,28,19.90
2021,04,20,16,29,20.00
2021,04,20,16,30,20.00
2021,04,20,16,31,20.00
2021,04,20,16,32,20.00
2021,04,20,16,33,19.90
2021,04,20,16,34,19.90
2021,04,20,16,35,19.90
2021,04,20,16,36,19.90
2021,04,20,16,37,19.90
2021,04,20,16,38,19.90
2021,04,20,16,39,20.00
2021,04,20,16,40,20.10
2021,04,20,16,41,20.10
2021,04,20,16,42,20.20
2021,04,20,16,43,20.20
2021,04,20,16,44,20.20
2021,04,20,16,45,20.20
2021,04,20,16,46,20.10
2021,04,20,16,47,20.10
2021,04,20,16,48,20.10
2021,04,20,16,49,20.10
2021,04,20,16,50,20.10
2021,04,20,16,51,20.20
2021,04,20,16,52,20.20
2021,04,20,16,53,20.20
2021,04,20,16,54,20.20
2021,04,20,16,55,20.20
2021,04,20,16,56,20.20
2021,04,20,16,57,20.20
2021,04,20,16,58,20.20
2021,04,20,16,59,20.30
2021,04,20,17,00,20.30
2021,04,20,17,01,20.30
2021,04,20,17,02,20.30
2021,04,20,17,03,20.40
2021,04,20,17,04,20.40
2021,04,20,17,05,20.40
2021,04,20,17,06,20.40
2021,04,20,17,07,20.40
2021,04,20,17,08,20.40
2021,04,20,17,09,20.50
2021,04,20,17,10,20.50
2021,04,20,17,11,20.60
2021,04,20,17,12,20.70
2021,04,20,17,13,20.70
2021,04,20,17,14,20.80
2021,04,20,17,15,20.90
2021,04,20,17,16,21.00
2021,04,20,17,17,21.10
2021,04,20,17,18,21.00
2021,04,20,17,19,21.00
2021,04,20,17,20,21.00
2021,04,20,17,21,20.90
2021,04,20,17,22,20.90
2021,04,20,17,23,20.90
2021,04,20,17,24,20.90
2021,04,20,17,25,20.90
2021,04,20,17,26,20.90
2021,04,20,17,27,20.90
2021,04,20,17,28,20.90
2021,04,20,17,29,20.90
2021,04,20,17,30,20.90
2021,04,20,17,31,20.80
2021,04,20,17,32,20.80
2021,04,20,17,33,20.80
2021,04,20,17,34,20.80
2021,04,20,17,35,20.80
2021,04,20,17,36,20.80